Weather History for Sauk Centre, MN

Change the Weather History Date:

Monday, November 19, 2012

  Actual Average (KGHW) Record (KGHW)
Temperature  
Mean Temperature 42 °F -  
Max Temperature 53 °F 37 °F 57 °F (1989)
Min Temperature 32 °F 20 °F 0 °F (1986)
Degree Days  
Heating Degree Days 22    
Moisture  
Dew Point 35 °F    
Average Humidity 75    
Maximum Humidity 100    
Minimum Humidity 54    
Precipitation  
Precipitation 0.00 in - - ()
Sea Level Pressure  
Sea Level Pressure 30.02 in    
Wind  
Wind Speed 7 mph (SW)    
Max Wind Speed 10 mph    
Max Gust Speed -    
Visibility 10 miles    
Events      
Averages and records for this station are not official NWS values.
T = Trace of Precipitation, MM = Missing Value Source: NWS Daily Summary

Daily Weather History Graph

Daily Weather History Graph

Search for Another Location

Airport:

Trip Planner

Search our weather history database for the weather conditions in past years. The results will help you decide how hot, cold, wet, or windy it might be!

Date:

Astronomy

Nov. 19, 2012 Rise Set
Actual Time 7:25 AM CST 4:44 PM CST
Civil Twilight 6:52 AM CST 5:17 PM CST
Nautical Twilight 6:16 AM CST 5:53 PM CST
Astronomical Twilight 5:41 AM CST 6:28 PM CST
Moon 12:21 PM CST (11/19) 11:21 PM CST (11/19)
Length of Visible Light 10h 24m
Length of Day
9h 18m
Waxing Crescent, 41% of the Moon is Illuminated
Nov 19
Waxing Crescent
Nov 20
First Quarter
Nov 28
Full
Dec 6
Last Quarter
Dec 13
New

Hourly Weather History & Observations

Time (CST) Temp. Windchill Dew Point Humidity Pressure Visibility Wind Dir Wind Speed Gust Speed Precip Events Conditions
12:15 AM 41.0 °F 36.4 °F 33.8 °F 76% 30.01 in 10.0 mi SE 6.9 mph - N/A   Clear
12:35 AM 41.0 °F 35.8 °F 33.8 °F 76% 30.01 in 10.0 mi SE 8.1 mph - N/A   Clear
12:55 AM 41.0 °F 36.4 °F 33.8 °F 76% 30.00 in 10.0 mi SE 6.9 mph - N/A   Clear
1:15 AM 41.0 °F 35.8 °F 33.8 °F 76% 30.00 in 10.0 mi SE 8.1 mph - N/A   Clear
1:35 AM 41.0 °F 36.4 °F 33.8 °F 76% 30.00 in 10.0 mi SE 6.9 mph - N/A   Clear
1:55 AM 41.0 °F 35.2 °F 33.8 °F 76% 29.99 in 10.0 mi SE 9.2 mph - N/A   Clear
2:15 AM 41.0 °F 35.2 °F 32.0 °F 70% 29.99 in 10.0 mi SE 9.2 mph - N/A   Clear
2:35 AM 39.2 °F 32.5 °F 32.0 °F 75% 29.99 in 10.0 mi SE 10.4 mph - N/A   Clear
2:55 AM 39.2 °F 33.6 °F 33.8 °F 81% 29.99 in 10.0 mi SSE 8.1 mph - N/A   Clear
3:15 AM 39.2 °F 33.6 °F 32.0 °F 75% 29.99 in 10.0 mi SSE 8.1 mph - N/A   Clear
3:35 AM 39.2 °F 33.6 °F 33.8 °F 81% 29.99 in 10.0 mi SE 8.1 mph - N/A   Scattered Clouds
3:55 AM 37.4 °F 32.8 °F 32.0 °F 81% 29.98 in 10.0 mi SSE 5.8 mph - N/A   Mostly Cloudy
4:15 AM 37.4 °F 32.8 °F 32.0 °F 81% 29.98 in 10.0 mi SE 5.8 mph - N/A   Scattered Clouds
4:35 AM 37.4 °F 32.1 °F 32.0 °F 81% 29.97 in 10.0 mi SE 6.9 mph - N/A   Clear
4:55 AM 37.4 °F 33.8 °F 32.0 °F 81% 29.98 in 10.0 mi SSE 4.6 mph - N/A   Scattered Clouds
5:15 AM 37.4 °F 32.8 °F 32.0 °F 81% 29.98 in 10.0 mi SE 5.8 mph - N/A   Mostly Cloudy
5:35 AM 37.4 °F 33.8 °F 33.8 °F 87% 29.99 in 10.0 mi SSE 4.6 mph - N/A   Mostly Cloudy
5:55 AM 37.4 °F 32.8 °F 33.8 °F 87% 29.99 in 10.0 mi SE 5.8 mph - N/A   Overcast
6:15 AM 41.0 °F 35.8 °F 33.8 °F 76% 29.98 in 10.0 mi SE 8.1 mph - N/A   Overcast
6:35 AM 41.0 °F 36.4 °F 33.8 °F 76% 29.98 in 10.0 mi SE 6.9 mph - N/A   Mostly Cloudy
6:55 AM 39.2 °F 35.9 °F 33.8 °F 81% 29.99 in 10.0 mi SSE 4.6 mph - N/A   Scattered Clouds
7:35 AM 37.4 °F 33.8 °F 33.8 °F 87% 29.99 in 10.0 mi SSE 4.6 mph - N/A   Mostly Cloudy
7:55 AM 37.4 °F 32.1 °F 33.8 °F 87% 29.99 in 10.0 mi SSE 6.9 mph - N/A   Scattered Clouds
8:15 AM 37.4 °F 33.8 °F 33.8 °F 87% 29.99 in 10.0 mi SSE 4.6 mph - N/A   Clear
8:35 AM 39.2 °F 37.0 °F 33.8 °F 81% 30.00 in 10.0 mi SSE 3.5 mph - N/A   Clear
8:55 AM 41.0 °F 37.1 °F 35.6 °F 81% 29.99 in 10.0 mi SSE 5.8 mph - N/A   Clear
9:15 AM 42.8 °F 39.3 °F 35.6 °F 76% 30.00 in 10.0 mi SSE 5.8 mph - N/A   Scattered Clouds
9:35 AM 44.6 °F 42.2 °F 35.6 °F 71% 30.00 in 10.0 mi South 4.6 mph - N/A   Scattered Clouds
9:55 AM 46.4 °F 42.4 °F 37.4 °F 71% 30.00 in 10.0 mi South 8.1 mph - N/A   Clear
10:15 AM 48.2 °F - 37.4 °F 66% 30.01 in 10.0 mi SSW 9.2 mph - N/A   Clear
10:35 AM 50.0 °F - 37.4 °F 62% 30.01 in 10.0 mi SSW 10.4 mph - N/A   Clear
10:55 AM 50.0 °F - 37.4 °F 62% 30.01 in 10.0 mi SW 9.2 mph - N/A   Clear
11:15 AM 51.8 °F - 37.4 °F 58% 30.00 in 10.0 mi WSW 8.1 mph - N/A   Clear
11:35 AM 51.8 °F - 37.4 °F 58% 30.00 in 10.0 mi WSW 6.9 mph - N/A   Clear
11:55 AM 51.8 °F - 37.4 °F 58% 30.00 in 10.0 mi West 6.9 mph - N/A   Clear
12:15 PM 51.8 °F - 37.4 °F 58% 30.00 in 10.0 mi WSW 5.8 mph - N/A   Clear
12:35 PM 51.8 °F - 37.4 °F 58% 29.99 in 10.0 mi WSW 3.5 mph - N/A   Clear
12:55 PM 53.6 °F - 37.4 °F 54% 29.99 in 10.0 mi Calm Calm - N/A   Clear
1:15 PM 53.6 °F - 37.4 °F 54% 29.99 in 10.0 mi SW 4.6 mph - N/A   Clear
1:35 PM 53.6 °F - 37.4 °F 54% 29.99 in 10.0 mi South 3.5 mph - N/A   Clear
1:55 PM 53.6 °F - 37.4 °F 54% 29.98 in 10.0 mi SE 3.5 mph - N/A   Clear
2:15 PM 53.6 °F - 37.4 °F 54% 29.99 in 10.0 mi SW 3.5 mph - N/A   Clear
2:35 PM 53.6 °F - 37.4 °F 54% 30.00 in 10.0 mi SW 4.6 mph - N/A   Clear
2:55 PM 53.6 °F - 37.4 °F 54% 30.00 in 10.0 mi Calm Calm - N/A   Clear
3:15 PM 53.6 °F - 37.4 °F 54% 30.01 in 10.0 mi WNW 4.6 mph - N/A   Clear
3:35 PM 53.6 °F - 37.4 °F 54% 30.01 in 10.0 mi WNW 5.8 mph - N/A   Clear
3:55 PM 51.8 °F - 37.4 °F 58% 30.02 in 10.0 mi West 5.8 mph - N/A   Clear
4:15 PM 50.0 °F - 37.4 °F 62% 30.03 in 10.0 mi West 5.8 mph - N/A   Clear
4:35 PM 48.2 °F - 37.4 °F 66% 30.03 in 10.0 mi West 5.8 mph - N/A   Clear
4:55 PM 46.4 °F 42.9 °F 37.4 °F 71% 30.04 in 10.0 mi WNW 6.9 mph - N/A   Clear
5:15 PM 44.6 °F 40.7 °F 35.6 °F 71% 30.04 in 10.0 mi WNW 6.9 mph - N/A   Clear
5:35 PM 42.8 °F 40.1 °F 35.6 °F 76% 30.04 in 10.0 mi WNW 4.6 mph - N/A   Clear
5:55 PM 42.8 °F 39.3 °F 35.6 °F 76% 30.04 in 10.0 mi WNW 5.8 mph - N/A   Clear
6:15 PM 42.8 °F 38.6 °F 35.6 °F 76% 30.06 in 10.0 mi WNW 6.9 mph - N/A   Clear
6:35 PM 44.6 °F 39.2 °F 35.6 °F 71% 30.07 in 10.0 mi NW 10.4 mph - N/A   Clear
6:55 PM 42.8 °F 37.5 °F 35.6 °F 76% 30.07 in 10.0 mi NW 9.2 mph - N/A   Clear
7:15 PM 41.0 °F 38.0 °F 35.6 °F 81% 30.06 in 10.0 mi NNW 4.6 mph - N/A   Clear
7:35 PM 37.4 °F 31.4 °F 33.8 °F 87% 30.07 in 10.0 mi NW 8.1 mph - N/A   Clear
7:55 PM 37.4 °F 33.8 °F 33.8 °F 87% 30.07 in 10.0 mi WNW 4.6 mph - N/A   Clear
8:15 PM 35.6 °F 29.9 °F 33.8 °F 93% 30.08 in 10.0 mi NW 6.9 mph - N/A   Clear
8:35 PM 35.6 °F 29.9 °F 32.0 °F 87% 30.08 in 10.0 mi NW 6.9 mph - N/A   Clear
9:15 PM 35.6 °F 30.7 °F 33.8 °F 93% 30.09 in 7.0 mi NW 5.8 mph - N/A   Clear
9:35 PM 35.6 °F 31.7 °F 32.0 °F 87% 30.09 in 7.0 mi NW 4.6 mph - N/A   Clear
9:55 PM 33.8 °F 28.6 °F 32.0 °F 93% 30.10 in 7.0 mi NW 5.8 mph - N/A   Clear
10:15 PM 33.8 °F 28.6 °F 32.0 °F 93% 30.10 in 7.0 mi NW 5.8 mph - N/A   Clear
10:35 PM 33.8 °F 28.6 °F 32.0 °F 93% 30.10 in 7.0 mi NW 5.8 mph - N/A   Clear
10:55 PM 32.0 °F 26.4 °F 32.0 °F 100% 30.10 in 7.0 mi NW 5.8 mph - N/A   Clear
11:15 PM 32.0 °F 27.5 °F 32.0 °F 100% 30.10 in 5.0 mi NW 4.6 mph - N/A   Clear
11:35 PM 32.0 °F 28.7 °F 32.0 °F 100% 30.10 in 5.0 mi North 3.5 mph - N/A   Clear
11:55 PM 32.0 °F 26.4 °F 32.0 °F 100% 30.11 in 4.0 mi WNW 5.8 mph - N/A   Clear